CZ-6A DEB, 60797

Orbit data source: Space-Track

CZ-6A DEB, 60797 is space debris in LEO originally from a launch on Tue, 06 Aug 2024 UTC launched from the Taiyaun Space Center, China (TSC). Debris objects in space refer to the collection of defunct objects orbiting the Earth. Examples of debris include non-operational satellites, rocket bodies, and fragments generated from explosions, collisions, or faulty payload assembly.

Loading next visibility...
Identifier
60797, 2024-140FY
Orbit
LEO
Country
Flag of CNCN / PRC
Related business
Manufacturer
SAST
Mission
Spacecraft
Bus & Motor
Unknown
Mass
Unknown
Launch date (UTC)
2024-08-06 (2 years ago)
Launch vehicle
Unknown
Launch site
Taiyaun Space Center, China (TSC)
Object type
Payload
Rocket body
Debris
Shape & HBR
Unknown shape, 0.2 m
Radar Cross Section
Medium (>0.1 m² and <1 m²)

Expand to show TLE details & history
Last TLE update: 15 hours ago

TLE from 15 hours ago
0 CZ-6A DEB
1 60797U 24140FY  26171.23662397  .00001260  00000-0  34583-3 0  9990
2 60797  88.8577 259.5526 0101888 210.7409 148.7803 14.43427597 97572
Epoch: 2026-06-20T05:40Z
TLE epoch observation values (Epoch: 2026-06-20T05:40:44.311Z)
Latitude
-0.00003°
Longitude
-94.08617°
Altitude
812.577 km
Speed
7.414 km/s
True Right ascension
17h 18m 12s
True Declination
0° 00' 00"
Sunlit
Object was in full shadow at epoch
Visualization orbit readout
Latitude
Unknown
Longitude
Unknown
Altitude
Unknown
Speed
Unknown
Apparent Right ascension
Unknown
Apparent Declination
Unknown
Sunlit
N/A
Visualization observer readout
Local Sidereal Time
07:20:16
Azimuth
Unknown
Elevation
Unknown
Doppler factor
Unknown
Orbital elements
Apogee altitude
816.681 km
Perigee altitude
671.547 km
Semi-major axis
7,122.251 km
Eccentricity
0.01019
Inclination
88.8577°
RAAN
259.5526°
Arg. of periapsis
210.7409°
True anomaly
149.37893°
Mean anomaly
148.7803°
Eccentric anomaly
149.08027°
Mean motion
3.61091 °/min
Orbital period
99.7 mins
BSTAR
0.00034583
Loading maneuver chart data...
Computing Atmospheric mass density...
Loading historical data...
Loading historical data...
Loading historical data...
Loading historical data...
Loading historical data...
Loading historical data...
Loading historical data...

Documentation

Showing up to 5 results
|